Temp_Advection
nan nan nan nan nan nan nan nan nan nan nan nan nan nan nan nan nan nan nan nan nan nan nan nan nan nan nan nan nan nan nan nan nan nan nan nan nan nan nan nan nan nan nan nan nan
nan -0 -0 -0 -0 -0 -0 -0 -0 -0 -0 -0 0 -0 -0 0 -0 -1 -0 1 0 -0 -0 -0 -0 -0 -0 -0 0 0 -0 -0 -0 -0 -0 -1 -1 -1 -1 -1 -1 -1 -0 0 nan
nan -0 -0 0 -0 -0 -0 -0 -0 -0 -0 -0 -0 -0 -0 -0 -0 -0 0 -0 -0 -0 -0 -0 -0 -0 -0 -0 -0 -0 -0 -0 -1 -1 -0 -1 -1 -1 -0 -0 -1 -1 -1 -0 nan
nan 0 -0 -0 -0 -0 -0 -0 -0 -0 -0 -0 -0 -0 -0 -0 -0 0 -0 -0 -0 0 -0 -0 -0 -0 -0 -0 -0 -0 -1 -0 -0 -0 -0 -0 -0 -0 -0 -0 -1 -1 -1 -1 nan
nan -0 -0 -0 -0 -0 -0 -0 -0 -0 -0 -0 -0 -0 -0 -0 -0 -0 -0 -0 -0 -0 -0 -0 -0 -0 -0 -0 -0 -0 -0 -1 -0 -0 -0 0 0 -0 -0 -0 -0 -0 -0 -0 nan
nan -0 -0 -0 -0 -0 -0 -0 -0 -0 -0 -0 0 0 -0 -1 -0 -0 0 -0 -0 -0 -0 -0 -0 -0 -0 -0 -0 -0 -0 -0 -0 -0 -0 0 -0 -0 -0 -0 -0 -0 -0 -0 nan
nan -1 -0 -0 -0 -0 -0 -0 -0 -0 0 -0 0 -0 -1 -0 0 0 0 0 -0 -0 -0 -0 -0 -0 -0 -0 -0 0 -0 -1 -1 -0 0 0 0 -0 -1 -0 -0 -0 -0 0 nan
nan -0 -0 -0 -0 -0 -0 -0 -0 -0 -0 -0 0 -0 -0 0 0 0 -0 -0 -0 0 0 -0 -0 -0 -0 -0 -0 -0 0 -0 -0 -0 0 0 0 -1 -1 -0 -0 -0 -0 -0 nan
nan -0 -0 -0 -0 -0 -0 -0 -0 -0 -0 -0 0 0 -0 -0 -0 -0 0 -0 -0 0 0 0 0 -0 0 0 -0 -0 0 -0 -1 -1 -0 0 0 -0 -0 -0 -0 -0 0 -0 nan
nan -0 -0 -0 -0 -0 -0 -0 -0 -0 -0 -0 -0 -0 -1 -0 -0 0 -0 0 0 0 -0 -0 0 0 0 0 0 -0 -0 -0 -1 -0 -0 -0 -1 -1 -0 -0 -0 -0 0 0 nan
nan -0 -0 -0 -0 -0 -0 -0 -0 -0 -1 -0 -0 -0 -0 -0 0 -0 -1 -0 0 -0 0 -0 0 0 0 0 0 0 0 0 -0 -1 0 -0 -1 -1 -1 -0 -0 -2 -1 -0 nan
nan 0 -0 -0 -0 -1 -1 -1 -0 0 0 -0 0 -0 -0 0 -0 -1 -1 -0 -0 -0 -0 -0 -0 0 0 0 0 0 0 -1 -1 -0 -0 -0 -1 -1 -0 -1 -1 -2 -3 -4 nan
nan -0 0 -0 -0 -1 -1 -1 -0 0 -0 0 0 -0 0 0 -0 -0 -1 -1 -0 -0 -1 -0 0 -0 -0 -0 -0 -0 0 -0 -0 -1 0 -0 0 -0 -1 -1 -2 -1 -2 -3 nan
nan -0 -0 -0 -0 -1 -0 0 0 0 -0 0 0 0 0 0 -0 0 0 -0 -0 -0 -0 -0 -0 -0 -1 -0 -0 -0 -0 0 1 0 0 -0 -0 -0 -1 -1 -1 -1 -1 -2 nan
nan 0 -0 -0 -0 -0 0 0 -0 0 0 -0 -0 -0 0 -0 0 0 -0 -0 -0 -0 -0 -0 0 0 -0 -0 -0 -0 -1 0 0 0 0 0 0 -0 -0 -1 -1 -1 -1 -2 nan
nan 0 0 -0 -0 0 0 -0 0 0 -0 0 -0 -0 -0 -0 -0 -0 -1 -1 -0 -0 -0 -0 0 0 -0 -1 -0 0 -0 -1 -0 -0 0 0 0 -0 -0 -0 -0 -0 -1 -1 nan
nan -0 -0 0 1 0 0 -0 0 0 -0 -0 -0 -0 0 -0 -0 -1 -0 -1 -0 -0 -1 -2 -0 0 1 0 -0 -1 0 -0 -0 -0 0 0 -0 -0 -0 -0 -0 -0 -0 -0 nan
nan -0 -0 -0 0 0 -0 0 0 -0 -0 -0 0 0 -0 -0 -0 -0 -0 -0 -0 -0 -0 -0 -1 -0 -0 0 0 -0 -0 0 0 0 -0 0 -0 -0 -0 -0 0 -0 -0 -0 nan
nan 0 -0 -0 0 0 -0 -0 -0 -0 -0 -0 -0 -0 -0 -0 -0 -0 -0 0 -0 -0 0 -0 -1 -1 -0 0 0 0 0 -0 0 -0 -0 -0 -0 0 -0 0 -0 0 -0 -0 nan
nan 0 0 -0 -0 -0 -0 0 -0 -0 -0 -0 -0 -0 -0 -0 -1 -1 -0 0 -0 -0 0 0 -1 -1 -1 -0 -0 -0 -0 -0 0 -0 -0 0 -0 0 -0 -0 -0 -0 -0 0 nan
nan -0 -0 0 -0 -0 -0 0 -0 -0 -0 -0 -0 -0 -0 -0 -0 -0 -0 -0 -0 0 -0 0 -0 -1 -0 -0 -0 0 -0 -0 -0 -0 0 0 -0 -0 -0 -0 -0 -0 -0 -0 nan
nan -0 -0 0 -0 -0 -0 0 0 -0 -0 -0 -0 -0 -0 -0 0 -0 -0 -0 -0 0 -0 -0 0 -1 -1 -0 -0 0 -0 -0 -0 -0 -0 0 0 0 -0 0 -0 -0 -0 -0 nan
nan -0 -0 0 -0 -0 0 -0 0 0 -0 0 -0 0 -0 0 0 -0 0 -0 -0 -0 -0 0 0 -0 -1 -0 -0 -0 -0 -0 0 -0 -0 -0 -0 0 -0 -0 -0 -0 -0 0 nan
nan -0 -0 -0 -0 -0 -0 0 -0 0 0 0 0 0 0 0 0 0 -0 0 -0 -0 0 -0 0 0 -0 -0 -0 -0 -1 -0 -0 0 -0 0 -0 -0 -0 -0 -0 0 0 -0 nan
nan 0 0 -0 -0 -0 -0 0 -0 0 0 0 0 0 0 0 -0 -0 0 -0 -0 -0 -0 -0 -0 -0 -1 -0 0 0 0 0 -0 -0 0 0 0 0 0 0 0 -0 -0 -0 nan
nan 0 0 -0 -0 -0 -0 -0 0 -0 -0 0 -0 0 0 -0 -0 -0 0 -0 0 -0 -0 -0 -0 -0 -0 -1 0 0 0 0 -0 -0 -0 -0 -0 0 -0 -0 -0 -0 -0 -0 nan
nan nan nan nan nan nan nan nan nan nan nan nan nan nan nan nan nan nan nan nan nan nan nan nan nan nan nan nan nan nan nan nan nan nan nan nan nan nan nan nan nan nan nan nan nan
Wind_Speed
22 21 20 20 20 21 22 23 21 18 15 13 11 6 12 16 17 14 19 19 20 19 19 16 15 16 3 2 3 3 3 4 7 6 7 13 8 10 14 9 14 13 9 2 9
23 23 22 21 20 21 23 22 19 15 14 13 11 5 8 7 2 19 20 18 19 20 20 19 20 17 6 4 1 2 3 4 8 7 8 15 14 16 13 18 19 18 11 8 11
23 25 24 22 20 21 22 21 17 15 15 13 12 8 6 4 2 13 21 21 22 20 17 14 13 11 7 3 5 7 3 10 14 15 15 16 18 17 15 12 19 23 22 18 13
24 25 25 23 21 21 23 20 16 15 13 11 12 13 14 10 3 16 22 22 22 19 13 13 13 9 6 4 4 3 12 11 13 16 13 10 18 16 19 23 25 30 31 31 25
24 24 24 22 21 21 22 18 14 13 11 11 12 10 5 8 7 14 21 24 18 16 11 10 10 9 7 11 11 10 9 13 15 19 20 20 17 17 22 25 27 27 29 30 27
25 25 24 22 20 21 21 16 12 10 8 9 14 13 7 7 10 14 21 25 19 13 11 7 6 9 7 8 5 14 15 17 20 20 21 18 19 16 24 25 25 24 26 27 27
28 26 23 21 19 20 19 13 10 8 6 3 6 5 10 9 11 15 19 22 14 12 10 6 5 4 10 7 9 11 12 13 18 13 3 9 11 12 27 28 28 24 23 23 26
28 28 24 22 17 19 17 11 10 6 8 7 7 8 5 12 18 17 22 23 11 9 6 7 4 4 5 9 7 9 9 5 3 6 7 3 23 12 23 17 20 21 22 22 23
27 28 27 23 17 19 14 8 12 5 8 12 7 3 4 8 18 22 22 23 13 7 6 3 2 4 3 6 5 4 5 13 12 17 14 10 17 7 20 22 26 27 27 27 27
26 29 29 25 17 20 13 5 8 17 4 7 9 3 11 15 14 21 27 14 7 10 7 3 3 4 4 5 5 9 11 12 12 9 18 20 18 15 23 27 24 24 25 27 30
26 29 30 24 15 20 15 5 2 2 21 9 7 5 9 15 12 22 33 12 12 8 4 2 2 3 8 7 8 8 13 16 17 20 16 12 18 18 20 21 16 22 26 26 28
25 29 29 23 14 20 20 6 3 5 6 8 5 8 7 13 10 26 33 13 10 7 13 1 1 8 8 11 10 10 11 16 15 9 14 14 21 20 10 12 17 25 27 25 25
22 26 26 22 15 24 23 14 5 7 2 3 6 7 8 11 10 20 26 14 8 9 11 7 5 10 10 12 10 11 15 13 15 13 14 7 5 10 11 17 27 29 28 27 23
21 23 27 23 11 20 15 14 7 4 1 6 7 9 10 7 1 17 22 8 7 8 9 3 9 9 12 10 11 11 10 18 19 11 2 5 4 13 10 13 17 27 30 25 21
19 21 24 21 16 22 18 6 8 2 2 5 4 7 6 10 10 18 18 9 5 12 4 6 7 9 7 3 10 10 17 20 21 15 3 2 4 4 8 16 20 20 28 26 17
19 18 22 19 18 24 17 4 3 1 3 3 3 9 9 14 5 13 11 17 4 5 5 8 16 1 4 9 12 15 12 22 1 3 1 5 2 5 8 14 16 19 27 26 14
20 22 20 16 19 21 12 4 1 5 1 5 4 7 7 6 5 11 4 9 6 8 7 10 3 3 11 10 8 18 12 4 5 3 1 7 5 4 9 12 12 15 25 27 20
21 24 15 9 19 18 7 1 7 1 3 3 4 9 3 7 5 7 7 5 9 7 4 5 7 10 10 7 6 10 6 4 5 3 5 4 5 2 6 16 22 27 28 30 26
19 14 12 12 19 12 3 5 1 2 2 6 6 4 2 4 5 7 4 5 3 5 4 6 5 8 7 7 6 7 8 6 4 8 4 4 2 3 12 11 17 23 25 29 30
14 11 4 13 14 6 4 3 2 3 2 3 4 4 4 6 6 6 6 2 4 3 4 4 7 7 7 7 5 6 9 4 3 5 5 3 4 7 19 17 13 17 23 26 28
11 4 3 12 6 4 3 3 2 3 1 2 2 3 4 3 2 3 2 1 5 6 3 5 2 8 6 3 4 5 5 5 3 3 3 3 2 4 7 10 11 15 21 24 25
7 4 6 7 2 3 2 3 1 5 2 1 3 2 1 3 1 2 2 3 4 8 3 3 3 5 5 6 3 2 5 5 2 6 4 3 2 4 5 7 12 14 20 21 21
6 5 5 3 2 1 3 3 1 4 4 3 3 3 3 1 1 4 3 6 3 4 3 4 2 5 6 4 1 3 5 8 7 3 2 3 2 7 12 11 15 16 18 19 19
3 3 4 3 2 1 2 2 3 4 2 3 2 0 1 3 5 2 4 2 3 3 1 3 3 5 4 5 5 6 12 6 5 2 5 2 5 9 8 7 11 15 16 17 18
2 3 2 2 1 2 2 1 3 3 4 6 3 6 4 2 2 3 2 4 2 5 2 3 4 4 11 16 13 14 9 4 3 5 3 4 2 5 5 4 8 9 13 14 16
3 3 2 1 1 3 1 4 5 2 6 4 4 3 7 5 5 4 4 3 3 4 2 1 4 6 5 6 2 6 10 9 4 4 7 6 2 4 4 8 11 12 10 11 12
5 9 5 2 2 1 4 3 4 8 6 3 8 3 4 7 11 9 5 8 8 2 0 1 3 5 5 7 5 3 5 2 3 4 2 2 2 4 5 6 5 7 6 6 8
Wind_Direction
23 17 11 7 5 2 1 358 357 357 3 359 356 52 91 82 54 34 25 3 355 0 12 355 1 356 329 311 325 302 284 271 278 318 339 28 29 344 344 334 315 291 314 32 8
20 14 8 6 4 2 360 357 358 4 8 11 9 39 121 97 72 21 9 5 1 3 355 354 353 357 2 346 324 286 261 273 30 359 341 329 349 348 332 317 307 311 303 254 338
16 12 7 4 2 359 357 358 4 9 12 21 34 45 94 62 51 7 354 359 354 354 346 343 343 345 332 356 10 339 262 327 329 342 344 329 318 318 308 290 287 293 288 307 325
12 8 4 360 359 359 358 360 5 12 22 37 58 65 62 30 49 348 348 350 345 335 350 345 343 351 320 337 21 304 292 308 327 328 332 310 304 295 283 280 287 286 284 287 300
8 4 1 359 357 358 357 359 6 17 35 56 56 56 56 64 29 348 343 353 348 345 353 338 344 355 342 336 321 269 289 315 313 309 299 292 283 281 278 276 270 272 278 282 287
10 6 3 0 358 357 356 358 7 19 45 67 70 51 51 74 359 343 352 349 344 358 355 346 315 322 298 285 304 312 314 302 297 286 279 271 275 287 276 277 276 269 266 272 277
8 3 3 3 359 357 355 1 5 14 359 12 45 78 30 38 5 340 351 353 342 343 342 340 322 299 328 298 334 303 292 286 274 263 302 333 282 253 277 281 262 263 267 273 275
7 5 3 3 1 359 356 11 7 18 26 55 76 56 72 1 352 354 349 351 348 342 342 340 327 300 282 303 289 253 255 270 272 281 282 256 278 280 287 315 314 307 297 289 274
6 6 3 3 6 6 1 14 29 24 62 57 34 10 55 333 3 7 341 345 343 333 338 348 349 301 267 237 299 338 308 327 321 324 308 286 277 252 283 284 278 267 270 274 276
3 1 1 360 7 9 9 33 38 27 77 34 31 98 27 347 358 358 343 354 336 320 255 269 276 252 259 11 320 319 318 307 293 289 297 279 272 280 266 260 270 281 273 264 266
6 2 357 359 10 12 18 18 356 47 55 66 49 34 335 344 17 349 354 6 348 257 336 91 300 19 6 329 298 284 300 294 287 281 290 319 302 298 297 289 309 325 288 268 258
3 5 0 4 8 11 24 66 84 137 78 52 45 31 8 13 354 352 360 23 353 344 2 3 171 24 325 317 301 303 300 294 286 326 340 301 290 291 311 31 3 346 335 326 272
356 5 5 4 359 11 15 25 126 133 247 71 42 8 357 359 16 359 359 345 344 338 351 306 18 342 329 325 338 321 290 286 316 329 294 340 297 21 7 21 353 343 338 329 307
350 357 4 3 2 11 355 1 157 125 164 18 360 8 350 334 146 11 1 11 354 342 338 297 332 353 334 322 353 316 304 305 296 315 305 70 282 42 354 355 348 347 341 332 323
345 353 357 2 2 1 352 10 143 87 110 23 10 357 2 45 342 0 356 14 9 324 301 309 330 337 326 268 313 275 308 293 284 269 239 231 253 351 353 349 348 341 343 347 348
334 352 355 0 359 348 351 106 114 1 6 53 12 358 359 31 22 350 16 27 26 325 269 298 294 257 210 286 311 354 309 302 335 84 187 252 258 36 2 342 340 344 349 356 17
335 339 340 353 350 349 360 75 56 69 129 354 335 342 314 357 12 13 75 48 39 360 2 315 331 87 0 334 326 338 335 335 354 9 69 293 78 49 4 356 349 346 350 3 26
329 326 329 356 353 352 22 245 56 83 14 9 315 307 43 9 8 4 10 26 51 15 296 342 337 24 348 354 301 318 354 358 310 334 295 298 2 78 38 9 358 2 2 17 34
340 343 337 359 354 358 32 52 28 64 316 340 289 299 88 100 9 358 85 22 74 45 25 347 279 333 345 331 352 325 351 270 261 259 255 110 10 197 6 14 6 0 8 16 30
323 337 2 348 351 18 58 109 61 60 355 289 342 28 333 18 16 23 19 37 11 107 87 335 295 285 318 327 28 356 356 348 330 343 323 88 53 342 348 355 1 3 5 16 36
326 329 318 344 10 41 87 70 109 111 70 350 312 318 358 50 84 321 311 200 40 357 341 300 216 296 312 57 13 342 11 349 270 278 318 328 342 9 339 347 353 1 4 15 35
329 291 315 345 41 19 95 138 159 156 171 204 287 288 358 38 249 243 243 193 44 345 346 348 292 281 278 350 130 308 52 3 2 324 296 282 20 327 29 11 4 5 11 22 37
312 280 305 342 117 158 147 136 233 170 200 197 237 228 108 212 8 212 312 138 149 354 29 338 263 307 338 21 58 31 325 357 311 215 292 348 43 2 25 24 17 11 15 26 37
309 303 302 20 66 34 116 183 185 221 236 192 278 245 229 271 192 254 320 75 179 122 341 330 270 221 233 225 320 310 312 319 332 288 324 62 321 359 0 359 15 9 19 30 36
251 268 269 302 299 87 98 157 175 210 224 192 232 225 170 202 330 240 237 329 106 121 52 62 270 245 262 275 277 268 273 267 239 277 286 302 358 355 349 304 27 19 27 28 36
254 281 309 59 101 94 110 219 203 126 163 213 205 190 196 186 187 214 90 223 249 128 122 352 281 333 286 241 261 285 285 276 253 272 273 300 87 44 34 63 16 35 28 32 37
245 254 274 200 130 137 210 231 217 150 209 195 211 241 242 244 254 288 286 236 244 257 72 227 351 337 273 347 335 344 239 217 280 232 297 303 19 15 20 33 21 353 22 36 33
Height
1544 1541 1538 1535 1532 1530 1527 1523 1520 1517 1515 1513 1512 1512 1512 1511 1511 1509 1507 1512 1508 1505 1502 1500 1498 1495 1494 1494 1495 1494 1497 1491 1484 1481 1480 1478 1479 1481 1483 1485 1485 1484 1484 1484 1483
1546 1542 1539 1536 1533 1530 1527 1523 1520 1518 1516 1514 1512 1511 1512 1512 1512 1510 1513 1511 1508 1505 1503 1500 1497 1496 1495 1495 1495 1495 1494 1486 1484 1485 1485 1482 1486 1486 1486 1486 1485 1484 1484 1482 1482
1547 1543 1540 1536 1533 1530 1527 1524 1521 1518 1516 1514 1513 1511 1513 1513 1514 1516 1514 1511 1508 1505 1504 1502 1501 1498 1496 1495 1495 1495 1493 1487 1487 1488 1488 1488 1486 1489 1488 1485 1488 1485 1484 1483 1482
1548 1544 1541 1537 1534 1530 1527 1524 1521 1519 1517 1516 1515 1514 1514 1513 1518 1518 1514 1511 1508 1505 1503 1503 1501 1499 1499 1497 1497 1499 1492 1490 1489 1489 1490 1490 1489 1487 1488 1485 1486 1483 1481 1479 1481
1549 1545 1541 1537 1533 1530 1527 1523 1521 1520 1518 1517 1516 1515 1515 1517 1521 1518 1515 1510 1508 1504 1503 1503 1502 1501 1499 1499 1498 1496 1494 1492 1491 1491 1489 1488 1486 1486 1481 1482 1480 1480 1479 1477 1478
1550 1546 1541 1537 1533 1530 1527 1524 1522 1520 1519 1518 1517 1516 1516 1520 1521 1519 1515 1511 1507 1505 1504 1504 1503 1503 1502 1499 1500 1496 1495 1493 1491 1488 1486 1483 1479 1482 1477 1477 1476 1476 1474 1474 1474
1550 1546 1542 1537 1534 1530 1527 1524 1522 1521 1520 1519 1518 1518 1519 1524 1521 1518 1516 1511 1508 1506 1505 1505 1504 1504 1502 1500 1497 1496 1497 1491 1484 1481 1481 1479 1477 1477 1473 1471 1469 1468 1469 1470 1470
1551 1546 1542 1538 1535 1531 1527 1525 1523 1522 1520 1520 1520 1519 1522 1522 1521 1518 1515 1510 1507 1506 1505 1504 1504 1502 1503 1502 1498 1493 1491 1492 1480 1480 1479 1480 1468 1472 1473 1469 1466 1465 1465 1465 1465
1551 1547 1542 1538 1535 1531 1527 1525 1524 1522 1522 1521 1521 1521 1525 1524 1520 1518 1515 1510 1509 1508 1505 1505 1504 1503 1502 1500 1499 1486 1497 1493 1487 1481 1478 1477 1469 1468 1470 1468 1465 1462 1461 1461 1461
1553 1548 1543 1538 1534 1531 1527 1526 1525 1524 1523 1522 1523 1526 1526 1525 1521 1519 1514 1509 1508 1506 1506 1505 1504 1503 1501 1502 1511 1504 1502 1496 1496 1481 1479 1472 1464 1460 1461 1460 1456 1455 1455 1454 1454
1553 1548 1543 1537 1535 1532 1527 1525 1529 1529 1525 1530 1532 1531 1529 1525 1523 1520 1513 1508 1507 1505 1503 1502 1506 1503 1503 1503 1500 1498 1495 1492 1485 1476 1470 1469 1463 1457 1456 1454 1453 1453 1449 1447 1447
1553 1549 1543 1538 1534 1532 1529 1525 1528 1532 1532 1533 1533 1533 1531 1526 1524 1520 1514 1512 1510 1508 1505 1505 1505 1503 1502 1499 1497 1494 1495 1488 1476 1469 1473 1468 1460 1456 1452 1457 1457 1455 1449 1443 1440
1553 1549 1544 1540 1536 1531 1529 1528 1529 1530 1531 1534 1534 1532 1531 1530 1528 1525 1520 1516 1514 1510 1510 1511 1506 1502 1501 1499 1498 1497 1494 1484 1479 1474 1472 1467 1459 1463 1458 1458 1457 1454 1448 1440 1436
1553 1549 1545 1541 1538 1534 1531 1531 1529 1530 1532 1536 1534 1535 1533 1529 1530 1529 1524 1524 1519 1517 1512 1508 1506 1504 1504 1502 1502 1499 1484 1479 1474 1478 1478 1474 1474 1466 1464 1465 1462 1455 1447 1440 1432
1553 1550 1546 1541 1540 1535 1535 1530 1530 1531 1527 1539 1538 1536 1533 1534 1535 1530 1527 1522 1523 1523 1519 1509 1507 1507 1508 1506 1502 1493 1481 1475 1470 1470 1474 1471 1471 1479 1467 1467 1464 1460 1452 1442 1435
1552 1549 1546 1542 1539 1538 1534 1532 1534 1533 1546 1538 1539 1538 1535 1534 1535 1533 1531 1526 1525 1520 1516 1510 1506 1506 1507 1500 1493 1489 1481 1463 1456 1469 1468 1479 1472 1481 1481 1480 1471 1464 1455 1447 1438
1552 1549 1546 1542 1541 1536 1533 1534 1535 1537 1538 1544 1544 1541 1537 1538 1536 1535 1539 1540 1545 1544 1535 1518 1504 1503 1503 1499 1494 1493 1486 1496 1493 1491 1480 1470 1472 1491 1487 1483 1478 1470 1460 1451 1443
1550 1548 1545 1541 1539 1535 1533 1535 1540 1545 1547 1546 1544 1541 1540 1543 1540 1539 1539 1545 1546 1547 1549 1541 1529 1507 1505 1507 1506 1498 1497 1499 1505 1501 1481 1467 1483 1490 1489 1485 1479 1471 1463 1456 1446
1548 1546 1545 1543 1539 1536 1535 1543 1549 1554 1552 1551 1544 1541 1539 1542 1546 1544 1549 1550 1551 1552 1560 1551 1530 1511 1507 1505 1505 1502 1504 1497 1498 1484 1478 1475 1481 1486 1485 1486 1482 1476 1470 1463 1454
1548 1544 1543 1542 1540 1537 1538 1546 1547 1551 1553 1553 1549 1546 1545 1549 1549 1552 1553 1551 1552 1553 1554 1551 1551 1515 1508 1504 1505 1505 1504 1504 1501 1507 1501 1480 1488 1496 1488 1486 1487 1481 1476 1470 1465
1548 1545 1542 1542 1540 1539 1547 1549 1550 1552 1553 1554 1552 1549 1547 1555 1560 1560 1556 1551 1552 1553 1552 1552 1554 1528 1511 1513 1517 1511 1518 1509 1505 1500 1497 1500 1499 1503 1501 1495 1493 1488 1482 1477 1472
1549 1547 1542 1541 1542 1543 1546 1548 1550 1552 1553 1554 1554 1551 1549 1551 1556 1556 1556 1553 1553 1553 1556 1552 1553 1553 1518 1511 1512 1513 1518 1519 1519 1514 1504 1490 1506 1502 1502 1499 1496 1493 1488 1482 1478
1550 1547 1543 1541 1545 1544 1546 1547 1549 1551 1551 1552 1552 1551 1550 1552 1560 1551 1548 1550 1551 1553 1554 1555 1554 1559 1531 1520 1513 1522 1518 1522 1520 1515 1504 1503 1501 1502 1502 1501 1499 1496 1492 1488 1483
1550 1548 1545 1542 1543 1541 1543 1544 1547 1549 1549 1550 1552 1552 1551 1550 1549 1553 1550 1549 1550 1551 1554 1554 1551 1554 1557 1541 1534 1538 1526 1523 1522 1516 1519 1511 1510 1506 1504 1504 1504 1501 1494 1493 1489
1551 1548 1546 1544 1543 1544 1545 1546 1545 1549 1550 1550 1551 1550 1551 1560 1555 1552 1547 1549 1549 1551 1553 1555 1556 1547 1538 1530 1528 1524 1526 1526 1527 1516 1517 1514 1516 1508 1507 1503 1503 1502 1499 1496 1494
1548 1549 1546 1545 1545 1546 1547 1546 1543 1547 1550 1549 1551 1545 1547 1554 1550 1556 1553 1550 1550 1552 1554 1555 1558 1544 1539 1519 1518 1520 1518 1518 1518 1513 1512 1505 1506 1508 1505 1504 1500 1500 1502 1501 1500
1546 1546 1546 1546 1545 1546 1542 1541 1540 1541 1544 1544 1545 1547 1547 1545 1546 1546 1545 1547 1547 1550 1551 1555 1557 1554 1549 1521 1534 1527 1527 1516 1513 1512 1510 1511 1509 1507 1508 1507 1506 1502 1504 1502 1500